SCP
0 0 0 0 0 -0 -0 -0 -0 -0 -0 -0 -0 -0 -0 -0 -0 -0 -0 -0 -0 -0 0 -0 -0 -0 -0 -0 -0 -0 -0 -0 -0 -0 -0 -0 -0 -0 -0 -0 -0 0 -0
-0 0 0 0 -0 -0 -0 -0 -0 -0 -0 -0 -0 -0 -0 -0 -0 0 0 0 -0 -0 -0 -0 -0 -0 -0 -0 -0 -0 -0 -0 -0 -0 -0 -0 -0 -0 -0 0 0 -0 -0
-0 0 -0 -0 -0 -0 -0 -0 -0 -0 -0 -0 -0 -0 -0 -0 -0 -0 0 0 0 0 -0 -0 -0 -0 -0 -0 -0 -0 0 -0 -0 -0 -0 -0 -0 -0 -0 -0 -0 -0 -0
0 -0 -0 0 -0 -0 -0 -0 -0 -0 -0 -0 -0 -0 -0 -0 -0 -0 -0 0 0 0 0 -0 -0 -0 -0 0 0 -0 0 0 0 0 -0 -0 0 -0 -0 -0 -0 -0 -0
0 0 0 -0 -0 -0 -0 -0 -0 -0 -0 -0 -0 -0 -0 -0 -0 -0 -0 -0 -0 0 0 -0 -0 -0 -0 -0 0 -0 -0 -0 -0 -0 -0 0 0 -0 -0 -0 -0 -0 0
0 0 0 -0 -0 -0 -0 -0 -0 -0 -0 -0 -0 -0 -0 -0 -0 -0 -0 -0 -0 0 0 0 -0 -0 -0 -0 0 0 0 -0 -0 -0 0 0 0 -0 -0 -0 -0 -0 -0
0 -0 -0 -0 -0 -0 -0 -0 -0 -0 -0 -0 -0 -0 -0 -0 -0 -0 -0 -0 -0 -0 -0 0 0 0 0 0 0 0 0 -0 -0 0 -0 0 0 -0 -0 -0 -0 -0 0
-0 -0 -0 -0 -0 -0 -0 -0 -0 -0 -0 -0 -0 -0 -0 -0 -0 -0 -0 -0 -0 -0 -0 0 0 -0 -0 0 0 0 -0 -0 -0 -0 0 -0 -0 -0 -0 -0 -0 -0 -0
-0 -0 -0 -0 -0 -0 -0 -0 -0 -0 -0 -0 -0 -0 -0 -0 -0 -0 -0 -0 -0 -0 -0 0 0 0 -0 -0 -0 -0 -0 -0 -0 0 0 -0 -0 -0 -0 -0 -0 -0 -0
-0 -0 -0 -0 0 -0 -0 -0 -0 -0 -0 -0 -0 -0 -0 -0 -0 -0 -0 -0 -0 -0 -0 0 -0 0 0 -0 -0 -0 -0 -0 0 0 0 -0 0 0 0 -0 -0 -0 -0
-0 -0 -0 -0 -0 -0 -0 -0 -0 -0 -0 -0 -0 -0 -0 0 -0 -0 -0 -0 -0 -0 -0 0 0 0 0 0 -0 0 0 0 -0 -0 -0 0 -0 -0 -0 0 0 -0 -0
0 0 -0 -0 -0 -0 -0 -0 -0 -0 -0 0 -0 -0 0 0 -0 -0 -0 -0 -0 -0 0 0 0 -0 -0 -0 -0 -0 0 -0 -0 -0 -0 0 -0 -0 -0 -0 0 -0 -0
0 0 0 0 -0 -0 -0 -0 0 -0 -0 -0 -0 0 -0 -0 -0 0 -0 0 -0 0 0 -0 -0 0 0 0 -0 0 0 0 -0 0 -0 -0 -0 -0 -0 -0 0 0 -0
-0 0 -0 -0 -0 0 0 -0 0 -0 0 0 -0 -0 -0 -0 -0 0 0 -0 -0 -0 -0 -0 -0 -0 0 0 0 -0 -0 -0 0 -0 -0 -0 -0 0 -0 -0 -0 0 -0
-0 -0 -0 -0 -0 0 0 0 0 0 0 0 -0 -0 -0 -0 -0 0 0 0 -0 -0 -0 -0 -0 -0 -0 0 0 0 -0 -0 -0 -0 0 -0 -0 -0 -0 -0 -0 0 0
0 0 0 -0 0 0 0 0 0 0 0 -0 -0 -0 -0 -0 0 0 0 0 0 0 -0 -0 -0 -0 -0 -0 0 0 0 -0 -0 0 0 0 -0 -0 -0 -0 -0 -0 0
0 0 0 0 0 0 0 0 0 0 -0 -0 -0 -0 -0 -0 -0 0 0 0 0 0 0 0 -0 -0 -0 -0 -0 -0 -0 0 0 -0 -0 0 0 -0 -0 -0 -0 -0 -0
0 0 0 0 0 0 0 0 0 0 -0 -0 -0 -0 -0 -0 -0 0 0 0 0 0 0 -0 -0 -0 0 -0 -0 -0 -0 -0 -0 -0 0 0 0 0 -0 -0 -0 -1 -0
0 0 0 0 0 0 0 0 0 0 0 0 -0 -0 -0 -0 -0 0 0 0 0 0 0 0 0 -0 -0 -0 0 -0 -0 -0 -0 -0 -0 -0 0 0 0 -0 -1 -0 -1
0 -0 -0 0 0 0 0 0 0 0 0 0 0 0 -0 0 0 0 0 0 0 0 0 -0 0 -0 -0 -0 0 0 -0 -0 -0 -0 -0 -0 -0 -0 -0 -0 -0 -0 -1
0 -0 -0 0 0 0 1 0 0 0 0 0 0 0 0 0 0 0 0 0 0 0 0 0 0 -0 -0 -0 -0 -0 -0 -0 -0 -0 -0 -0 0 -0 -0 -0 0 0 0
-0 -0 -0 -0 0 0 0 1 1 0 0 0 0 0 0 0 -0 0 0 0 0 0 0 0 0 0 -0 0 0 -0 0 0 0 0 -0 -0 -0 0 0 -0 -0 0 0
-0 -0 -0 -0 0 0 0 0 0 0 0 0 0 0 0 -0 -0 -0 -0 0 0 0 0 0 0 0 0 -0 0 -0 -0 0 0 0 0 -0 -0 0 0 0 0 0 -0
-0 -0 -0 -0 -0 -0 -0 0 -0 0 0 0 0 0 0 0 0 -0 0 -0 0 0 0 0 0 0 0 0 0 0 -0 0 0 0 0 0 0 0 0 0 0 0 0
0 -0 -0 -0 -0 -0 -0 0 0 0 0 0 0 0 0 0 0 0 0 0 0 0 0 0 0 0 0 0 0 0 0 -0 -0 0 -0 -0 0 0 0 -0 0 0 0
0 -0 -0 -1 -0 0 0 0 0 0 0 0 0 0 0 0 0 0 0 0 0 0 0 0 0 0 0 0 0 0 0 0 0 -0 0 -0 -0 -0 -0 0 0 0 0
Wind_Speed_500mb
35 40 43 48 51 52 48 48 51 51 49 43 38 35 34 36 35 35 30 25 23 26 27 23 25 23 22 24 22 22 20 22 26 31 37 37 34 31 28 28 29 29 28
41 40 43 46 45 47 47 50 51 48 45 43 41 39 41 39 35 31 26 25 26 25 26 27 28 26 26 29 28 28 28 26 25 27 31 30 31 27 25 26 27 28 28
41 41 41 43 43 44 45 48 46 43 43 42 41 40 38 34 29 27 25 27 26 27 27 27 28 27 25 26 29 29 32 29 27 25 25 27 30 28 26 25 28 26 27
39 40 41 41 39 41 43 43 41 37 37 36 37 34 32 28 27 26 25 26 23 26 27 28 28 29 27 30 31 31 32 27 24 23 18 20 24 23 25 26 26 26 26
36 38 39 38 40 40 40 40 37 32 30 30 31 29 27 24 24 24 25 23 23 24 27 28 30 25 25 28 27 27 29 23 18 16 16 10 14 20 23 24 25 25 26
31 35 39 39 40 40 40 36 32 29 29 29 27 27 25 20 20 23 26 24 25 24 23 23 24 25 22 25 27 25 20 15 16 13 10 11 7 16 23 23 22 24 23
34 38 41 39 38 36 34 30 27 27 26 25 25 24 19 16 19 23 25 25 25 25 23 23 19 23 22 23 21 19 11 7 6 14 8 5 3 8 17 20 22 23 23
35 39 41 37 32 31 31 28 25 23 25 23 22 22 19 18 17 20 26 25 25 25 23 21 19 19 21 24 20 14 7 2 2 12 10 7 7 9 12 17 20 21 22
32 39 37 34 29 26 24 22 19 20 20 20 23 20 15 17 17 16 16 22 23 23 21 19 19 20 19 22 24 18 15 13 9 11 15 15 15 13 13 15 18 21 21
30 33 32 30 29 27 21 19 21 22 22 21 21 9 10 14 16 7 11 18 22 22 19 18 16 17 16 16 16 13 14 14 14 20 22 24 21 22 22 18 20 22 25
38 30 29 29 26 23 22 21 21 20 20 22 20 7 6 17 20 16 20 24 26 23 19 17 16 13 13 14 13 14 16 18 19 30 31 33 26 25 26 24 24 24 26
33 34 31 29 23 22 22 18 18 19 20 23 19 7 4 11 22 19 25 24 25 24 19 15 14 13 10 9 16 17 15 24 25 16 26 35 38 32 31 30 29 31 30
34 34 29 29 27 20 19 20 17 16 17 21 21 11 6 11 9 21 25 35 28 26 21 18 18 16 14 12 19 17 22 20 24 11 28 29 29 34 31 33 34 39 36
42 34 32 29 28 25 24 27 30 21 21 20 20 25 20 18 18 13 23 33 35 30 24 25 25 28 24 20 24 23 25 19 20 9 11 20 28 26 25 28 35 42 41
41 39 38 34 29 27 28 7 28 22 29 24 24 21 20 11 12 13 15 24 33 36 33 30 33 35 36 32 28 31 24 22 21 19 20 19 27 24 18 23 30 39 41
49 45 44 43 34 34 36 21 2 16 19 22 21 22 23 16 14 14 18 18 20 22 25 26 29 34 37 35 36 30 27 26 26 28 21 15 20 25 20 17 27 36 41
46 49 46 47 38 36 33 30 22 14 12 14 14 19 20 17 14 14 19 20 23 26 29 28 27 35 39 35 43 39 37 28 26 28 29 29 23 16 20 21 22 32 44
50 49 44 46 40 29 25 23 26 18 15 9 9 12 8 9 10 14 18 17 18 25 30 32 29 34 35 44 42 43 47 38 38 37 36 33 28 26 26 26 24 29 34
52 48 43 45 34 25 24 18 15 16 16 12 13 16 15 14 15 17 18 15 17 25 25 30 30 33 31 31 37 39 46 49 39 38 34 32 32 38 26 21 30 29 30
45 52 41 42 33 30 25 25 21 21 19 18 14 13 14 15 17 21 21 20 23 25 24 29 24 26 25 26 29 28 34 41 39 41 40 40 35 36 35 32 31 27 29
45 52 45 41 39 38 38 37 32 26 17 17 17 17 20 15 13 18 20 17 19 20 20 24 29 28 24 21 30 34 40 43 41 44 45 44 44 45 46 35 38 36 36
45 49 51 42 33 33 34 30 27 21 25 25 24 23 27 24 14 17 17 17 20 20 22 21 25 31 30 25 33 34 31 30 39 45 47 47 43 41 45 44 43 43 42
53 41 45 40 29 31 18 26 30 27 32 26 24 25 23 27 23 22 22 24 21 24 24 23 24 28 29 28 34 33 14 13 17 16 26 38 43 43 44 49 51 49 47
54 39 39 37 34 13 15 20 25 25 30 31 28 28 28 30 26 24 23 29 29 27 29 27 26 29 30 31 34 38 41 41 10 14 21 29 33 37 47 55 51 52 47
61 48 44 43 39 18 15 12 19 24 29 29 29 29 30 24 27 26 26 27 32 31 28 30 30 32 32 32 34 39 40 41 47 52 51 32 24 21 24 38 44 41 49
46 63 54 49 41 31 22 13 17 17 17 17 18 20 21 21 19 21 25 29 29 29 30 29 30 35 38 38 32 39 42 42 46 44 50 55 48 39 35 34 33 36 47
Wind_Direction_500mb
129 126 127 128 129 132 133 129 127 125 123 123 124 125 129 131 130 135 132 123 115 116 120 117 125 124 118 112 114 118 113 118 124 124 126 130 130 126 129 134 135 134 133
133 126 133 131 130 132 131 131 130 127 126 125 124 126 129 126 130 134 128 120 117 123 124 118 113 116 118 120 120 119 119 122 130 136 134 131 126 121 129 135 134 137 136
136 128 131 132 131 133 134 134 130 125 121 119 118 125 125 124 126 119 122 116 116 124 127 125 117 119 122 122 122 126 124 125 122 123 127 128 124 128 128 132 130 128 127
138 134 134 132 134 133 135 137 136 131 128 127 123 124 121 126 124 122 118 122 122 133 130 130 127 129 125 127 124 120 124 115 107 113 120 131 135 138 134 129 132 133 136
139 140 138 137 134 135 136 140 143 141 138 133 130 125 126 129 129 124 129 132 126 128 128 127 127 129 134 132 131 125 120 132 124 106 88 108 143 145 145 141 141 142 141
140 145 141 138 137 137 137 144 147 145 140 138 136 134 131 137 139 139 138 134 132 132 138 135 133 134 139 141 134 127 124 134 164 163 117 93 135 149 145 141 138 139 139
146 148 143 143 142 146 150 152 158 156 146 144 138 140 131 140 147 147 145 141 134 134 138 140 137 140 148 157 142 132 121 114 161 196 167 146 142 164 158 153 152 152 148
150 154 151 148 149 152 153 155 156 158 155 151 147 131 125 138 158 151 147 145 141 140 142 149 153 146 150 162 163 162 159 238 265 195 221 230 232 203 187 178 169 161 158
165 165 159 155 158 159 159 161 163 159 160 155 154 146 135 128 149 151 165 165 164 160 158 154 156 159 165 170 184 204 218 237 261 212 207 230 238 235 218 198 189 175 169
174 177 171 168 169 169 168 165 168 158 158 162 163 152 201 205 195 202 199 199 179 174 170 169 174 175 182 196 206 216 230 241 241 252 248 237 233 240 237 219 205 194 183
168 182 179 177 180 183 180 180 179 174 173 171 166 142 231 224 211 261 245 215 194 186 186 181 181 188 203 210 208 213 225 243 255 253 246 247 234 228 227 226 225 210 200
168 172 192 193 196 192 189 193 189 193 190 188 188 221 261 240 239 226 217 207 205 195 193 193 198 197 215 233 246 244 273 277 288 284 245 231 231 229 234 232 228 226 215
174 161 167 167 175 176 188 200 205 214 212 207 218 224 320 263 280 230 223 220 215 211 206 214 223 227 243 241 237 263 293 272 261 296 253 233 247 225 235 241 235 226 224
190 178 169 169 172 178 189 193 199 210 220 228 242 248 288 276 249 251 225 220 219 220 233 239 245 246 242 248 254 265 270 283 290 331 345 231 226 230 241 247 235 224 225
192 189 185 192 192 189 191 228 208 209 218 215 242 262 273 267 243 234 210 213 225 235 248 255 255 252 243 241 247 262 265 261 291 309 312 250 232 230 240 244 237 224 226
197 198 195 201 207 207 216 264 280 228 215 227 236 259 259 267 263 243 228 227 224 230 239 251 251 243 247 248 245 248 262 262 268 277 282 299 266 240 244 241 238 228 224
200 195 202 205 207 216 240 251 261 242 238 246 248 256 255 259 266 269 257 261 259 255 253 253 256 254 251 251 245 244 242 254 262 263 271 276 293 259 242 240 236 233 229
198 200 202 206 212 227 239 258 247 236 236 246 242 245 249 256 264 276 271 263 258 256 255 254 254 256 258 247 246 247 237 235 248 255 265 272 267 277 271 249 238 237 237
201 201 207 210 218 229 235 239 239 243 247 252 259 264 265 266 269 276 277 271 264 262 253 253 246 253 252 248 247 244 239 233 244 239 248 256 263 255 256 252 248 242 241
204 211 208 215 226 231 239 243 244 244 242 238 260 269 258 262 263 271 276 262 268 271 260 251 261 249 258 250 247 242 223 230 238 231 237 247 255 254 261 254 245 241 236
209 211 211 209 218 228 230 235 241 259 263 255 261 276 275 268 266 268 273 283 260 267 267 255 253 255 246 251 255 250 244 247 245 236 233 238 256 259 257 257 243 241 240
207 212 216 213 210 219 237 247 254 269 270 280 283 281 284 286 290 294 289 289 271 265 249 256 251 249 256 252 257 261 276 265 260 257 240 231 242 256 253 254 255 247 246
213 211 210 214 216 235 238 241 248 257 273 287 297 298 290 294 297 292 282 283 283 271 262 251 254 256 258 255 252 242 241 259 289 264 242 240 244 250 255 258 262 258 250
223 223 221 217 220 245 248 250 258 277 284 296 299 295 296 297 300 289 292 282 281 279 272 263 253 254 252 246 248 254 252 257 297 292 252 239 246 244 251 259 264 260 248
222 225 223 220 224 242 266 250 259 269 287 304 301 299 288 298 294 307 293 283 285 283 281 273 266 252 247 249 245 261 261 258 260 262 275 256 251 232 245 258 262 248 237
214 233 224 220 222 227 243 247 247 262 268 286 303 303 298 295 290 299 297 287 299 288 281 281 274 262 258 259 260 258 262 262 262 264 267 269 272 256 261 255 264 252 244
Wind_Speed_850mb
35 40 43 48 51 52 48 48 51 51 49 43 38 35 34 36 35 35 30 25 23 26 27 23 25 23 22 24 22 22 20 22 26 31 37 37 34 31 28 28 29 29 28
41 40 43 46 45 47 47 50 51 48 45 43 41 39 41 39 35 31 26 25 26 25 26 27 28 26 26 29 28 28 28 26 25 27 31 30 31 27 25 26 27 28 28
41 41 41 43 43 44 45 48 46 43 43 42 41 40 38 34 29 27 25 27 26 27 27 27 28 27 25 26 29 29 32 29 27 25 25 27 30 28 26 25 28 26 27
39 40 41 41 39 41 43 43 41 37 37 36 37 34 32 28 27 26 25 26 23 26 27 28 28 29 27 30 31 31 32 27 24 23 18 20 24 23 25 26 26 26 26
36 38 39 38 40 40 40 40 37 32 30 30 31 29 27 24 24 24 25 23 23 24 27 28 30 25 25 28 27 27 29 23 18 16 16 10 14 20 23 24 25 25 26
31 35 39 39 40 40 40 36 32 29 29 29 27 27 25 20 20 23 26 24 25 24 23 23 24 25 22 25 27 25 20 15 16 13 10 11 7 16 23 23 22 24 23
34 38 41 39 38 36 34 30 27 27 26 25 25 24 19 16 19 23 25 25 25 25 23 23 19 23 22 23 21 19 11 7 6 14 8 5 3 8 17 20 22 23 23
35 39 41 37 32 31 31 28 25 23 25 23 22 22 19 18 17 20 26 25 25 25 23 21 19 19 21 24 20 14 7 2 2 12 10 7 7 9 12 17 20 21 22
32 39 37 34 29 26 24 22 19 20 20 20 23 20 15 17 17 16 16 22 23 23 21 19 19 20 19 22 24 18 15 13 9 11 15 15 15 13 13 15 18 21 21
30 33 32 30 29 27 21 19 21 22 22 21 21 9 10 14 16 7 11 18 22 22 19 18 16 17 16 16 16 13 14 14 14 20 22 24 21 22 22 18 20 22 25
38 30 29 29 26 23 22 21 21 20 20 22 20 7 6 17 20 16 20 24 26 23 19 17 16 13 13 14 13 14 16 18 19 30 31 33 26 25 26 24 24 24 26
33 34 31 29 23 22 22 18 18 19 20 23 19 7 4 11 22 19 25 24 25 24 19 15 14 13 10 9 16 17 15 24 25 16 26 35 38 32 31 30 29 31 30
34 34 29 29 27 20 19 20 17 16 17 21 21 11 6 11 9 21 25 35 28 26 21 18 18 16 14 12 19 17 22 20 24 11 28 29 29 34 31 33 34 39 36
42 34 32 29 28 25 24 27 30 21 21 20 20 25 20 18 18 13 23 33 35 30 24 25 25 28 24 20 24 23 25 19 20 9 11 20 28 26 25 28 35 42 41
41 39 38 34 29 27 28 7 28 22 29 24 24 21 20 11 12 13 15 24 33 36 33 30 33 35 36 32 28 31 24 22 21 19 20 19 27 24 18 23 30 39 41
49 45 44 43 34 34 36 21 2 16 19 22 21 22 23 16 14 14 18 18 20 22 25 26 29 34 37 35 36 30 27 26 26 28 21 15 20 25 20 17 27 36 41
46 49 46 47 38 36 33 30 22 14 12 14 14 19 20 17 14 14 19 20 23 26 29 28 27 35 39 35 43 39 37 28 26 28 29 29 23 16 20 21 22 32 44
50 49 44 46 40 29 25 23 26 18 15 9 9 12 8 9 10 14 18 17 18 25 30 32 29 34 35 44 42 43 47 38 38 37 36 33 28 26 26 26 24 29 34
52 48 43 45 34 25 24 18 15 16 16 12 13 16 15 14 15 17 18 15 17 25 25 30 30 33 31 31 37 39 46 49 39 38 34 32 32 38 26 21 30 29 30
45 52 41 42 33 30 25 25 21 21 19 18 14 13 14 15 17 21 21 20 23 25 24 29 24 26 25 26 29 28 34 41 39 41 40 40 35 36 35 32 31 27 29
45 52 45 41 39 38 38 37 32 26 17 17 17 17 20 15 13 18 20 17 19 20 20 24 29 28 24 21 30 34 40 43 41 44 45 44 44 45 46 35 38 36 36
45 49 51 42 33 33 34 30 27 21 25 25 24 23 27 24 14 17 17 17 20 20 22 21 25 31 30 25 33 34 31 30 39 45 47 47 43 41 45 44 43 43 42
53 41 45 40 29 31 18 26 30 27 32 26 24 25 23 27 23 22 22 24 21 24 24 23 24 28 29 28 34 33 14 13 17 16 26 38 43 43 44 49 51 49 47
54 39 39 37 34 13 15 20 25 25 30 31 28 28 28 30 26 24 23 29 29 27 29 27 26 29 30 31 34 38 41 41 10 14 21 29 33 37 47 55 51 52 47
61 48 44 43 39 18 15 12 19 24 29 29 29 29 30 24 27 26 26 27 32 31 28 30 30 32 32 32 34 39 40 41 47 52 51 32 24 21 24 38 44 41 49
46 63 54 49 41 31 22 13 17 17 17 17 18 20 21 21 19 21 25 29 29 29 30 29 30 35 38 38 32 39 42 42 46 44 50 55 48 39 35 34 33 36 47
Wind_Direction_850mb
129 126 127 128 129 132 133 129 127 125 123 123 124 125 129 131 130 135 132 123 115 116 120 117 125 124 118 112 114 118 113 118 124 124 126 130 130 126 129 134 135 134 133
133 126 133 131 130 132 131 131 130 127 126 125 124 126 129 126 130 134 128 120 117 123 124 118 113 116 118 120 120 119 119 122 130 136 134 131 126 121 129 135 134 137 136
136 128 131 132 131 133 134 134 130 125 121 119 118 125 125 124 126 119 122 116 116 124 127 125 117 119 122 122 122 126 124 125 122 123 127 128 124 128 128 132 130 128 127
138 134 134 132 134 133 135 137 136 131 128 127 123 124 121 126 124 122 118 122 122 133 130 130 127 129 125 127 124 120 124 115 107 113 120 131 135 138 134 129 132 133 136
139 140 138 137 134 135 136 140 143 141 138 133 130 125 126 129 129 124 129 132 126 128 128 127 127 129 134 132 131 125 120 132 124 106 88 108 143 145 145 141 141 142 141
140 145 141 138 137 137 137 144 147 145 140 138 136 134 131 137 139 139 138 134 132 132 138 135 133 134 139 141 134 127 124 134 164 163 117 93 135 149 145 141 138 139 139
146 148 143 143 142 146 150 152 158 156 146 144 138 140 131 140 147 147 145 141 134 134 138 140 137 140 148 157 142 132 121 114 161 196 167 146 142 164 158 153 152 152 148
150 154 151 148 149 152 153 155 156 158 155 151 147 131 125 138 158 151 147 145 141 140 142 149 153 146 150 162 163 162 159 238 265 195 221 230 232 203 187 178 169 161 158
165 165 159 155 158 159 159 161 163 159 160 155 154 146 135 128 149 151 165 165 164 160 158 154 156 159 165 170 184 204 218 237 261 212 207 230 238 235 218 198 189 175 169
174 177 171 168 169 169 168 165 168 158 158 162 163 152 201 205 195 202 199 199 179 174 170 169 174 175 182 196 206 216 230 241 241 252 248 237 233 240 237 219 205 194 183
168 182 179 177 180 183 180 180 179 174 173 171 166 142 231 224 211 261 245 215 194 186 186 181 181 188 203 210 208 213 225 243 255 253 246 247 234 228 227 226 225 210 200
168 172 192 193 196 192 189 193 189 193 190 188 188 221 261 240 239 226 217 207 205 195 193 193 198 197 215 233 246 244 273 277 288 284 245 231 231 229 234 232 228 226 215
174 161 167 167 175 176 188 200 205 214 212 207 218 224 320 263 280 230 223 220 215 211 206 214 223 227 243 241 237 263 293 272 261 296 253 233 247 225 235 241 235 226 224
190 178 169 169 172 178 189 193 199 210 220 228 242 248 288 276 249 251 225 220 219 220 233 239 245 246 242 248 254 265 270 283 290 331 345 231 226 230 241 247 235 224 225
192 189 185 192 192 189 191 228 208 209 218 215 242 262 273 267 243 234 210 213 225 235 248 255 255 252 243 241 247 262 265 261 291 309 312 250 232 230 240 244 237 224 226
197 198 195 201 207 207 216 264 280 228 215 227 236 259 259 267 263 243 228 227 224 230 239 251 251 243 247 248 245 248 262 262 268 277 282 299 266 240 244 241 238 228 224
200 195 202 205 207 216 240 251 261 242 238 246 248 256 255 259 266 269 257 261 259 255 253 253 256 254 251 251 245 244 242 254 262 263 271 276 293 259 242 240 236 233 229
198 200 202 206 212 227 239 258 247 236 236 246 242 245 249 256 264 276 271 263 258 256 255 254 254 256 258 247 246 247 237 235 248 255 265 272 267 277 271 249 238 237 237
201 201 207 210 218 229 235 239 239 243 247 252 259 264 265 266 269 276 277 271 264 262 253 253 246 253 252 248 247 244 239 233 244 239 248 256 263 255 256 252 248 242 241
204 211 208 215 226 231 239 243 244 244 242 238 260 269 258 262 263 271 276 262 268 271 260 251 261 249 258 250 247 242 223 230 238 231 237 247 255 254 261 254 245 241 236
209 211 211 209 218 228 230 235 241 259 263 255 261 276 275 268 266 268 273 283 260 267 267 255 253 255 246 251 255 250 244 247 245 236 233 238 256 259 257 257 243 241 240
207 212 216 213 210 219 237 247 254 269 270 280 283 281 284 286 290 294 289 289 271 265 249 256 251 249 256 252 257 261 276 265 260 257 240 231 242 256 253 254 255 247 246
213 211 210 214 216 235 238 241 248 257 273 287 297 298 290 294 297 292 282 283 283 271 262 251 254 256 258 255 252 242 241 259 289 264 242 240 244 250 255 258 262 258 250
223 223 221 217 220 245 248 250 258 277 284 296 299 295 296 297 300 289 292 282 281 279 272 263 253 254 252 246 248 254 252 257 297 292 252 239 246 244 251 259 264 260 248
222 225 223 220 224 242 266 250 259 269 287 304 301 299 288 298 294 307 293 283 285 283 281 273 266 252 247 249 245 261 261 258 260 262 275 256 251 232 245 258 262 248 237
214 233 224 220 222 227 243 247 247 262 268 286 303 303 298 295 290 299 297 287 299 288 281 281 274 262 258 259 260 258 262 262 262 264 267 269 272 256 261 255 264 252 244